| time (UTC) | temp C | wind direction | speed KPH | gust KPH | rain 1hr cm | rain 24hr cm | rain mn cm | humidity % | barometer mb |
| 20260903000056 | 12 | 180 | 1.6 | 6.4 | 0.00 | 0.00 | 0.00 | 93 | 1015.4 |
| 20260902234614 | 12 | 199 | 0.0 | 6.4 | 0.00 | 0.00 | 0.00 | 93 | 1015.5 |
| 20260902233045 | 12 | 202 | 1.6 | 6.4 | 0.00 | 0.00 | 0.00 | 92 | 1016.0 |
| 20260902231553 | 12 | 246 | 1.6 | 3.2 | 0.00 | 0.00 | 0.00 | 92 | 1016.1 |
| 20260902230050 | 12 | 229 | 1.6 | 3.2 | 0.00 | 0.00 | 0.00 | 92 | 1017.2 |
| 20260902224610 | 12 | 209 | 3.2 | 9.7 | 0.00 | 0.00 | 0.00 | 92 | 1017.1 |
| 20260902223051 | 12 | 167 | 3.2 | 12.9 | 0.00 | 0.00 | 0.00 | 91 | 1017.5 |
| 20260902221602 | 12 | 213 | 3.2 | 8.0 | 0.00 | 0.00 | 0.00 | 91 | 1017.8 |
| 20260902220050 | 12 | 205 | 3.2 | 6.4 | 0.00 | 0.00 | 0.00 | 91 | 1017.9 |
| 20260902214601 | 12 | 165 | 1.6 | 8.0 | 0.00 | 0.00 | 0.00 | 91 | 1018.0 |
| 20260902213050 | 12 | 196 | 3.2 | 9.7 | 0.00 | 0.00 | 0.00 | 90 | 1018.3 |
| 20260902211547 | 12 | 209 | 0.0 | 6.4 | 0.00 | 0.00 | 0.00 | 90 | 1018.4 |
| 20260902210057 | 12 | 210 | 1.6 | 9.7 | 0.00 | 0.00 | 0.00 | 89 | 1018.4 |
| 20260902204555 | 12 | 188 | 6.4 | 11.3 | 0.00 | 0.00 | 0.00 | 89 | 1018.7 |
| 20260902203049 | 13 | 196 | 4.8 | 8.0 | 0.00 | 0.00 | 0.00 | 88 | 1018.9 |
| 20260902201603 | 13 | 138 | 3.2 | 9.7 | 0.00 | 0.00 | 0.00 | 87 | 1018.9 |
| 20260902200132 | 13 | 160 | 1.6 | 3.2 | 0.00 | 0.00 | 0.00 | 87 | 1018.8 |
| 20260902194555 | 13 | 180 | 4.8 | 11.3 | 0.00 | 0.00 | 0.00 | 86 | 1018.3 |
| 20260902193051 | 14 | 0 | 0.0 | 3.2 | 0.00 | 0.00 | 0.00 | 86 | 1018.6 |
| 20260902191550 | 14 | 181 | 0.0 | 3.2 | 0.00 | 0.00 | 0.00 | 84 | 1019.0 |
| 20260902190103 | 14 | 212 | 0.0 | 3.2 | 0.00 | 0.00 | 0.00 | 82 | 1019.3 |
| 20260902184557 | 15 | 0 | 0.0 | 3.2 | 0.00 | 0.00 | 0.00 | 81 | 1019.4 |
| 20260902183057 | 15 | 224 | 0.0 | 3.2 | 0.00 | 0.00 | 0.00 | 80 | 1019.7 |
| 20260902181549 | 15 | 0 | 0.0 | 3.2 | 0.00 | 0.00 | 0.00 | 78 | 1019.7 |
| 20260902180117 | 15 | 345 | 0.0 | 3.2 | 0.00 | 0.00 | 0.00 | 77 | 1019.7 |
| 20260902174555 | 15 | 351 | 0.0 | 3.2 | 0.00 | 0.00 | 0.00 | 76 | 1019.8 |
| 20260902173047 | 15 | 0 | 0.0 | 3.2 | 0.00 | 0.00 | 0.00 | 77 | 1019.5 |
| 20260902171601 | 16 | 0 | 0.0 | 4.8 | 0.00 | 0.00 | 0.00 | 77 | 1019.7 |
| 20260902170103 | 16 | 260 | 0.0 | 3.2 | 0.00 | 0.00 | 0.00 | 76 | 1019.5 |
| 20260902164559 | 16 | 0 | 0.0 | 4.8 | 0.00 | 0.00 | 0.00 | 75 | 1019.5 |
| 20260902163058 | 16 | 231 | 0.0 | 3.2 | 0.00 | 0.00 | 0.00 | 74 | 1019.6 |
| 20260902161554 | 16 | 292 | 0.0 | 9.7 | 0.00 | 0.00 | 0.00 | 74 | 1019.0 |
| 20260902160106 | 17 | 213 | 1.6 | 4.8 | 0.00 | 0.00 | 0.00 | 72 | 1019.6 |
| 20260902154556 | 18 | 210 | 3.2 | 6.4 | 0.00 | 0.00 | 0.00 | 70 | 1019.6 |
| 20260902153054 | 18 | 198 | 3.2 | 8.0 | 0.00 | 0.00 | 0.00 | 69 | 1019.3 |
| 20260902151553 | 18 | 168 | 4.8 | 11.3 | 0.00 | 0.00 | 0.00 | 70 | 1018.7 |
| 20260902150049 | 19 | 236 | 1.6 | 11.3 | 0.00 | 0.00 | 0.00 | 66 | 1019.5 |
| 20260902144558 | 20 | 16 | 4.8 | 12.9 | 0.00 | 0.00 | 0.00 | 64 | 1018.8 |
| 20260902143057 | 20 | 213 | 6.4 | 14.5 | 0.00 | 0.00 | 0.00 | 64 | 1019.5 |
| 20260902141550 | 20 | 200 | 8.0 | 16.1 | 0.00 | 0.00 | 0.00 | 66 | 1019.4 |
| 20260902140048 | 20 | 214 | 6.4 | 14.5 | 0.00 | 0.00 | 0.00 | 64 | 1019.4 |
| 20260902134546 | 21 | 165 | 4.8 | 9.7 | 0.00 | 0.00 | 0.00 | 64 | 1019.5 |
| 20260902133046 | 21 | 224 | 3.2 | 11.3 | 0.00 | 0.00 | 0.00 | 61 | 1019.3 |
| 20260902131551 | 21 | 173 | 1.6 | 6.4 | 0.00 | 0.00 | 0.00 | 62 | 1019.5 |
| 20260902130045 | 21 | 52 | 1.6 | 8.0 | 0.00 | 0.00 | 0.00 | 60 | 1019.7 |
| 20260902124557 | 21 | 242 | 1.6 | 6.4 | 0.00 | 0.00 | 0.00 | 60 | 1019.9 |
| 20260902123045 | 20 | 183 | 4.8 | 9.7 | 0.00 | 0.00 | 0.00 | 64 | 1020.2 |
| 20260902121550 | 20 | 85 | 0.0 | 8.0 | 0.00 | 0.00 | 0.00 | 67 | 1020.6 |
| 20260902120048 | 19 | 182 | 3.2 | 6.4 | 0.00 | 0.00 | 0.00 | 67 | 1021.1 |
| 20260902114546 | 18 | 44 | 1.6 | 9.7 | 0.00 | 0.00 | 0.00 | 67 | 1021.7 |
| 20260902113107 | 18 | 180 | 3.2 | 9.7 | 0.00 | 0.00 | 0.00 | 71 | 1021.8 |
| 20260902111556 | 17 | 215 | 3.2 | 8.0 | 0.00 | 0.00 | 0.00 | 74 | 1022.3 |
| 20260902110043 | 17 | 162 | 1.6 | 3.2 | 0.00 | 0.00 | 0.00 | 75 | 1022.5 |
| 20260902104546 | 16 | 230 | 1.6 | 8.0 | 0.00 | 0.00 | 0.00 | 76 | 1022.8 |
| 20260902103048 | 15 | 234 | 1.6 | 6.4 | 0.00 | 0.00 | 0.00 | 78 | 1023.4 |
| 20260902101604 | 15 | 181 | 3.2 | 4.8 | 0.00 | 0.00 | 0.00 | 79 | 1023.9 |
| 20260902100046 | 15 | 207 | 0.0 | 3.2 | 0.00 | 0.00 | 0.00 | 79 | 1024.3 |
| 20260902094551 | 15 | 0 | 0.0 | 3.2 | 0.00 | 0.00 | 0.00 | 80 | 1024.9 |
| 20260902093055 | 13 | 57 | 1.6 | 3.2 | 0.00 | 0.00 | 0.00 | 82 | 1025.2 |
| 20260902091551 | 13 | 201 | 0.0 | 6.4 | 0.00 | 0.00 | 0.00 | 84 | 1025.3 |
| 20260902090047 | 13 | 236 | 4.8 | 9.7 | 0.00 | 0.00 | 0.00 | 86 | 1025.6 |
| 20260902084551 | 13 | 0 | 1.6 | 4.8 | 0.00 | 0.00 | 0.00 | 84 | 1025.6 |
| 20260902083046 | 13 | 73 | 1.6 | 4.8 | 0.00 | 0.00 | 0.00 | 87 | 1025.6 |
| 20260902081552 | 12 | 217 | 3.2 | 4.8 | 0.00 | 0.00 | 0.00 | 88 | 1025.9 |
| 20260902080059 | 12 | 198 | 0.0 | 3.2 | 0.00 | 0.00 | 0.00 | 89 | 1026.1 |
| 20260902074546 | 12 | 222 | 3.2 | 6.4 | 0.00 | 0.00 | 0.00 | 90 | 1026.1 |
| 20260902073044 | 12 | 269 | 1.6 | 6.4 | 0.00 | 0.00 | 0.00 | 91 | 1026.1 |
| 20260902071555 | 12 | 169 | 0.0 | 3.2 | 0.00 | 0.00 | 0.00 | 92 | 1026.3 |
| 20260902070051 | 12 | 0 | 1.6 | 4.8 | 0.00 | 0.00 | 0.00 | 92 | 1026.3 |
| 20260902064555 | 12 | 0 | 0.0 | 3.2 | 0.00 | 0.00 | 0.00 | 93 | 1026.1 |
| 20260902063047 | 11 | 101 | 0.0 | 3.2 | 0.00 | 0.00 | 0.00 | 93 | 1026.2 |
| 20260902060050 | 11 | 63 | 0.0 | 3.2 | 0.00 | 0.00 | 0.00 | 93 | 1026.4 |
| 20260902054550 | 11 | 90 | 0.0 | 3.2 | 0.00 | 0.00 | 0.00 | 93 | 1026.5 |
| 20260902053057 | 11 | 209 | 1.6 | 3.2 | 0.00 | 0.00 | 0.00 | 92 | 1026.4 |
| 20260902051554 | 11 | 250 | 0.0 | 3.2 | 0.00 | 0.00 | 0.00 | 92 | 1026.3 |
| 20260902050100 | 11 | 208 | 1.6 | 4.8 | 0.00 | 0.00 | 0.00 | 91 | 1026.3 |
| 20260902044547 | 11 | 0 | 1.6 | 3.2 | 0.00 | 0.00 | 0.00 | 91 | 1026.1 |
| 20260902043044 | 11 | 85 | 0.0 | 3.2 | 0.00 | 0.00 | 0.00 | 91 | 1026.2 |
| 20260902041600 | 11 | 115 | 0.0 | 3.2 | 0.00 | 0.00 | 0.00 | 91 | 1025.9 |
| 20260902040050 | 11 | 163 | 0.0 | 3.2 | 0.00 | 0.00 | 0.00 | 91 | 1026.0 |
| 20260902034552 | 11 | 169 | 3.2 | 6.4 | 0.00 | 0.00 | 0.00 | 92 | 1026.0 |
| 20260902033105 | 11 | 196 | 3.2 | 8.0 | 0.00 | 0.00 | 0.00 | 92 | 1025.8 |
| 20260902031557 | 11 | 196 | 3.2 | 9.7 | 0.00 | 0.00 | 0.00 | 92 | 1025.6 |
| 20260902030043 | 11 | 184 | 3.2 | 6.4 | 0.00 | 0.00 | 0.00 | 91 | 1025.6 |
| 20260902024557 | 11 | 209 | 1.6 | 6.4 | 0.00 | 0.00 | 0.00 | 90 | 1025.5 |
| 20260902023104 | 11 | 203 | 1.6 | 4.8 | 0.00 | 0.00 | 0.00 | 90 | 1025.2 |
| 20260902021608 | 11 | 212 | 1.6 | 3.2 | 0.00 | 0.00 | 0.00 | 88 | 1025.3 |
| 20260902020055 | 11 | 205 | 1.6 | 3.2 | 0.00 | 0.00 | 0.00 | 88 | 1025.3 |
| 20260902014553 | 11 | 316 | 0.0 | 3.2 | 0.00 | 0.00 | 0.00 | 88 | 1025.3 |
| 20260902013048 | 10 | 227 | 0.0 | 3.2 | 0.00 | 0.00 | 0.00 | 89 | 1025.3 |
| 20260902011548 | 10 | 190 | 0.0 | 3.2 | 0.00 | 0.00 | 0.00 | 87 | 1025.5 |
| 20260902010057 | 10 | 197 | 3.2 | 4.8 | 0.00 | 0.00 | 0.00 | 84 | 1025.2 |
| 20260902004558 | 11 | 197 | 1.6 | 3.2 | 0.00 | 0.00 | 0.00 | 83 | 1025.2 |
| 20260902003056 | 11 | 232 | 0.0 | 3.2 | 0.00 | 0.00 | 0.00 | 83 | 1025.0 |
| 20260902001547 | 11 | 0 | 0.0 | 3.2 | 0.00 | 0.00 | 0.00 | 79 | 1025.1 |